User: anonymous   Login
Location: Unspecified
(0.0000°N, 0.0000°E)
Time: 10:27:44
(UTC+00:00)
Language:

AMOS 1 - Orbit

View from above orbital plane
View from above orbital plane
View from above satellite
View from above satellite

Ground track
Ground track

The orbit data is extracted from the following two-line orbital elements,

1 23865U 96030B   16340.81341050 -.00000123 +00000-0 +00000-0 0  9995
2 23865 006.7361 055.4015 0010638 144.3586 175.8327 00.97118258074777
Epoch (UTC): 05 December 2016 19:31:18
Eccentricity: 0.0010638
inclination: 6.7361°
perigee height: 36648 km
apogee height: 36740 km
right ascension of ascending node: 55.4015°
argument of perigee: 144.3586°
revolutions per day: 0.97118258
mean anomaly at epoch: 175.8327°
orbit number at epoch: 7477

The dashed part of the orbit path shows where the satellite is in the earth's shadow,  

DLR